TimeCST,TemperatureF,Dew PointF,Humidity,Sea Level PressureIn,VisibilityMPH,Wind Direction,Wind SpeedMPH,Gust SpeedMPH,PrecipitationIn,Events,Conditions,WindDirDegrees,DateUTC
12:56 AM,30.0,24.1,79,30.05,10.0,NNW,5.8,-,N/A,,Clear,330,2013-02-24 06:56:00
1:56 AM,27.1,23.0,84,30.07,10.0,NW,4.6,-,N/A,,Clear,310,2013-02-24 07:56:00
2:56 AM,27.1,23.0,84,30.08,10.0,Calm,Calm,-,N/A,,Clear,0,2013-02-24 08:56:00
3:56 AM,26.1,23.0,88,30.09,10.0,Calm,Calm,-,N/A,,Clear,0,2013-02-24 09:56:00
4:56 AM,27.1,23.0,84,30.09,10.0,Calm,Calm,-,N/A,,Clear,0,2013-02-24 10:56:00
5:56 AM,27.1,23.0,84,30.11,10.0,Calm,Calm,-,N/A,,Clear,0,2013-02-24 11:56:00
6:56 AM,26.1,24.1,92,30.13,7.0,Calm,Calm,-,N/A,,Clear,0,2013-02-24 12:56:00
7:56 AM,31.1,25.2,79,30.16,8.0,Calm,Calm,-,N/A,,Clear,0,2013-02-24 13:56:00
8:56 AM,32.9,24.1,70,30.18,8.0,Variable,4.6,-,N/A,,Clear,0,2013-02-24 14:56:00
9:56 AM,36.9,26.1,65,30.18,10.0,ENE,5.8,-,N/A,,Clear,70,2013-02-24 15:56:00
10:56 AM,38.8,23.0,53,30.17,10.0,Variable,6.9,-,N/A,,Clear,0,2013-02-24 16:56:00
11:56 AM,41.9,24.1,49,30.15,10.0,NE,8.1,-,N/A,,Clear,50,2013-02-24 17:56:00
12:56 PM,43.9,24.1,46,30.14,10.0,Variable,5.8,-,N/A,,Clear,0,2013-02-24 18:56:00
1:56 PM,45.9,24.1,42,30.13,10.0,Calm,Calm,-,N/A,,Clear,0,2013-02-24 19:56:00
2:56 PM,47.8,27.1,45,30.12,10.0,Variable,3.5,-,N/A,,Clear,0,2013-02-24 20:56:00
3:56 PM,45.9,25.2,44,30.11,10.0,North,4.6,-,N/A,,Clear,360,2013-02-24 21:56:00
4:56 PM,45.9,27.1,48,30.11,10.0,NNE,5.8,-,N/A,,Clear,30,2013-02-24 22:56:00
5:56 PM,43.9,27.1,52,30.11,10.0,NNE,3.5,-,N/A,,Clear,30,2013-02-24 23:56:00
6:56 PM,43.0,28.0,56,30.13,10.0,NE,3.5,-,N/A,,Clear,40,2013-02-25 00:56:00
7:56 PM,39.9,27.1,60,30.13,10.0,NE,4.6,-,N/A,,Clear,50,2013-02-25 01:56:00
8:56 PM,37.9,27.1,65,30.11,10.0,NE,6.9,-,N/A,,Clear,50,2013-02-25 02:56:00
9:56 PM,37.9,27.1,65,30.11,10.0,NE,5.8,-,N/A,,Clear,50,2013-02-25 03:56:00
10:56 PM,36.0,27.1,70,30.08,10.0,ENE,6.9,-,N/A,,Clear,70,2013-02-25 04:56:00
11:56 PM,36.0,26.1,67,30.08,10.0,ENE,5.8,-,N/A,,Clear,60,2013-02-25 05:56:00